TimeCST,TemperatureF,Dew PointF,Humidity,Sea Level PressureIn,VisibilityMPH,Wind Direction,Wind SpeedMPH,Gust SpeedMPH,PrecipitationIn,Events,Conditions,WindDirDegrees,DateUTC
12:51 AM,48.0,32.0,54,30.28,10.0,Variable,3.5,-,N/A,,Mostly Cloudy,0,2012-11-19 06:51:00
1:51 AM,48.9,34.0,56,30.29,10.0,South,5.8,-,N/A,,Mostly Cloudy,170,2012-11-19 07:51:00
2:51 AM,44.1,34.0,68,30.27,10.0,ESE,5.8,-,N/A,,Mostly Cloudy,120,2012-11-19 08:51:00
3:51 AM,44.1,35.1,71,30.27,10.0,ESE,5.8,-,N/A,,Mostly Cloudy,120,2012-11-19 09:51:00
4:51 AM,42.1,34.0,73,30.28,10.0,ESE,4.6,-,N/A,,Mostly Cloudy,120,2012-11-19 10:51:00
5:51 AM,44.1,36.0,73,30.29,10.0,Calm,Calm,-,N/A,,Mostly Cloudy,0,2012-11-19 11:51:00
6:51 AM,46.9,36.0,66,30.28,10.0,SSE,6.9,-,N/A,,Mostly Cloudy,150,2012-11-19 12:51:00
7:51 AM,48.9,35.1,59,30.28,10.0,South,6.9,-,N/A,,Overcast,170,2012-11-19 13:51:00
8:51 AM,50.0,36.0,59,30.28,10.0,SSE,4.6,-,N/A,,Mostly Cloudy,150,2012-11-19 14:51:00
9:51 AM,53.1,37.0,55,30.28,9.0,South,4.6,-,N/A,,Mostly Cloudy,190,2012-11-19 15:51:00
10:51 AM,54.0,37.0,53,30.28,9.0,South,4.6,-,N/A,,Overcast,170,2012-11-19 16:51:00
11:51 AM,55.9,37.0,49,30.25,10.0,South,5.8,-,N/A,,Overcast,190,2012-11-19 17:51:00
12:51 PM,57.0,39.0,51,30.22,10.0,SSE,8.1,-,N/A,,Overcast,150,2012-11-19 18:51:00
1:51 PM,57.0,37.9,49,30.19,10.0,SE,6.9,-,N/A,,Overcast,140,2012-11-19 19:51:00
2:51 PM,57.9,39.0,49,30.18,10.0,SSE,6.9,-,N/A,,Mostly Cloudy,160,2012-11-19 20:51:00
3:51 PM,59.0,37.9,46,30.18,10.0,South,5.8,-,N/A,,Mostly Cloudy,190,2012-11-19 21:51:00
4:51 PM,57.0,37.9,49,30.16,10.0,SSE,6.9,-,N/A,,Mostly Cloudy,160,2012-11-19 22:51:00
5:51 PM,55.0,37.9,53,30.16,9.0,SSE,5.8,-,N/A,,Mostly Cloudy,160,2012-11-19 23:51:00
6:51 PM,55.0,37.0,51,30.16,10.0,South,4.6,-,N/A,,Scattered Clouds,190,2012-11-20 00:51:00
7:51 PM,54.0,39.9,59,30.15,10.0,South,5.8,-,0.01,,Mostly Cloudy,170,2012-11-20 01:51:00
8:51 PM,55.0,39.0,55,30.14,10.0,SSW,3.5,-,N/A,,Mostly Cloudy,200,2012-11-20 02:51:00
9:51 PM,50.0,37.9,63,30.14,10.0,Calm,Calm,-,N/A,,Partly Cloudy,0,2012-11-20 03:51:00
10:51 PM,46.0,39.9,79,30.14,10.0,Calm,Calm,-,N/A,,Mostly Cloudy,0,2012-11-20 04:51:00
11:51 PM,48.0,39.0,71,30.13,10.0,Calm,Calm,-,N/A,,Scattered Clouds,0,2012-11-20 05:51:00